Location: The D'Auria's Ocala Star Observatory
(29.0276°N, 82.1742°W)
Time: 13:52:32
(UTC-04:00)

Okean 3 Rocket - Visible Passes

Search period start: 29 July 2016 00:00
Search period end: 08 August 2016 00:00
Orbit: 615 x 646 km, 82.5° (Epoch: 28 July)

Date Brightness Start Highest point End Pass type
(mag) Time Alt. Az. Time Alt. Az. Time Alt. Az.
29 Jul 6.1 03:22:40 10° N 03:23:53 18° NNE 03:23:53 18° NNE visible
30 Jul 6.1 03:43:25 10° N 03:44:16 16° N 03:44:16 16° N visible
01 Aug 6.8 02:47:40 10° NNE 02:47:45 10° NNE 02:47:45 10° NNE visible
02 Aug 6.7 03:08:10 10° N 03:08:12 10° N 03:08:12 10° N visible
